Location: Bron Breck
(40.6655°N, 111.8083°W)
Time: 23:53:03
(UTC+00:00)

ISS - Visible Passes

Search period start: 05 March 2021 00:00
Search period end: 15 March 2021 00:00
Orbit: 417 x 422 km, 51.6° (Epoch: 05 March)

Date Brightness Start Highest point End Pass type
(mag) Time Alt. Az. Time Alt. Az. Time Alt. Az.
05 Mar -0.9 11:41:50 12° NNE 11:41:50 12° NNE 11:42:48 10° NNE visible
05 Mar -1.7 13:16:15 10° NNW 13:18:57 22° NNE 13:21:40 10° ENE visible
06 Mar -1.3 12:29:09 11° NNW 12:31:17 18° NNE 12:33:39 10° ENE visible
07 Mar -1.1 11:43:34 15° NNE 11:43:35 15° NNE 11:45:35 10° NE visible
07 Mar -2.7 13:17:47 10° NW 13:21:02 44° NNE 13:24:16 10° ESE visible
08 Mar -2.1 12:30:59 13° NNW 12:33:27 30° NNE 12:36:28 10° E visible
09 Mar -1.7 11:45:31 22° NNE 11:45:49 22° NNE 11:48:31 10° ENE visible
09 Mar -3.7 13:19:32 10° WNW 13:22:52 66° SW 13:26:11 10° SE visible
10 Mar -0.3 11:00:09 11° ENE 11:00:09 11° ENE 11:00:30 10° ENE visible
10 Mar -3.6 12:33:08 19° NW 12:35:23 72° NE 12:38:44 10° ESE visible
11 Mar -2.8 11:47:55 44° NE 11:47:55 44° NE 11:51:05 10° ESE visible
12 Mar -0.5 11:02:50 13° E 11:02:50 13° E 11:03:15 10° E visible
12 Mar -3.1 12:35:51 26° W 12:37:05 37° SW 12:40:12 10° SSE visible
13 Mar -2.5 11:50:57 33° SSE 11:50:57 33° SSE 11:52:58 10° SE visible
14 Mar -1.5 12:39:18 12° SW 12:39:18 12° SW 12:40:05 10° SSW visible
